Carmel-by-the-Sea, CA

6:13 AM PDT on May 27, 2015 (GMT -0700)
San Martin | | Change Station
CLOSE
Current Station
Airport
Location: San Martin,
Elevation: 279 ft
Nearby Weather Stations

Elev 279 ft 37.08 °N, 121.60 °W | Updated 18 minutes ago

Overcast
Overcast
54 °F
Feels Like 54 °F
N
5
Wind Variable Wind from SSW

Today
High -- | Low -- °F
--% Chance of Precip.
Yesterday
High -- | Low -- °F
Precip. -- in
5:52 AM 8:17 PM
Waxing Gibbous, 67% visible
Pressure 30.02 in
Visibility 10.0 miles
Clouds Overcast 1400 ft
Dew Point 50 °F
Humidity 88%
Rainfall 0.00 in
Snow Depth Not available.
UV 0 out of 12
Pollen 5.80 out of 12
Air Quality Not available.
Flu Activity Sporadic
METAR KE16 271255Z AUTO 20004KT 10SM OVC014 12/10 A3002 RMK AO2

More Conditions Fewer Conditions

Pressure 30.02 in
Visibility 10.0 miles
Clouds Overcast 1400 ft
Dew Point 50 °F
Humidity 88%
Rainfall 0.00 in
Snow Depth Not available.
UV 0 out of 12
Pollen 5.80 out of 12
Air Quality Not available.
Flu Activity Sporadic
METAR KE16 271255Z AUTO 20004KT 10SM OVC014 12/10 A3002 RMK AO2

More Conditions Fewer Conditions

10-Day Weather Forecast

Almanac

Astronomy

May. 27, 2015 Rise Set
Actual Time
Civil Twilight
Nautical Twilight
Astronomical Twilight
Moon
Length of Visible Light
Length of Day
Tomorrow will be .
, % of the Moon is Illuminated

Today's Extremes

State Highs State Lows

Community

WunderPhotos

Upload Photos

1,824,664 photos uploaded!

WunderBlogs® & News

Nearby

Air Quality

  Air Quality AQ Index Pollutant
Not available.

Snow Depth

Station Depth Elevation

Earthquake Activity

City Distance Mag. Time & Date
Minimum magnitude displayed is 2.5.

Coastal Water Temperatures

Place Temperature

Stations

Nearby Weather Stations

Station Location Temp. Windchill Dew Point Humidity Wind Precip. Elev Updated Type